Date String (YYYY-MM-DD hh:mm:ss) UTC,Instrument flags,Ambient pressure (hPa),Sample flow (lpm),Bypass flow (lpm),Sample temperature (°C),Ambient temperature (°C),ASC tube jacket temperature (°C),LED temperature (°C),Box temperature (°C),Sample RH (%),Span deviation,Mass concentration (μg/m³),Mass concentration (μg/m³),Mass concentration (μg/m³)
DateTimeUTC,F1_M11,P_M11,Q1_M11,Q2_M11,T1_M11,T2_M11,T3_M11,T4_M11,T5_M11,U1_M11,ZSPAN_M11,X0_M11,X2_M11,X1_M11
2021-11-08 09:00:00,,0827.9,4.99,0.00,28.6,27.7,00.0,37.6,30.3,13.5,0000.0,0009.39,0003.15,0001.95
2021-11-08 09:01:00,,0827.9,4.99,0.00,28.6,27.7,00.0,37.6,30.3,13.5,0000.0,0009.46,0003.16,0001.97
2021-11-08 09:02:00,,0828.0,4.99,0.00,28.6,27.7,00.0,37.6,30.3,13.5,0000.0,0009.46,0003.16,0002.00
2021-11-08 09:03:00,,0828.0,5.00,0.00,28.6,27.7,00.0,37.6,30.4,13.5,0000.0,0009.64,0003.22,0002.05
2021-11-08 09:04:00,,0828.1,5.00,0.00,28.6,27.7,00.0,37.6,30.3,13.5,0000.0,0009.16,0003.30,0002.11
2021-11-08 09:05:00,,0828.1,5.00,0.00,28.6,27.7,00.0,37.6,30.4,13.5,0000.0,0009.18,0003.34,0002.15
2021-11-08 09:06:00,,0828.1,5.00,0.00,28.6,27.7,00.0,37.6,30.3,13.5,0000.0,0009.26,0003.36,0002.19
2021-11-08 09:07:00,,0828.2,5.01,0.00,28.6,27.7,00.0,37.6,30.3,13.5,0000.0,0009.02,0003.37,0002.22
2021-11-08 09:08:00,,0828.2,5.00,0.00,28.6,27.7,00.0,37.6,30.3,13.5,0000.0,0008.62,0003.36,0002.24
2021-11-08 09:09:00,,0828.2,5.00,0.00,28.6,27.7,00.0,37.6,30.3,13.5,0000.0,0008.56,0003.37,0002.27
2021-11-08 09:10:00,,0828.2,5.00,0.00,28.6,27.7,00.0,37.6,30.3,13.5,0000.0,0008.55,0003.37,0002.30
2021-11-08 09:11:00,,0828.2,5.00,0.00,28.6,27.7,00.0,37.6,30.3,13.5,0000.0,0007.98,0003.40,0002.33
2021-11-08 09:12:00,,0828.1,5.01,0.00,28.6,27.7,00.0,37.6,30.3,13.5,0000.0,0007.62,0003.38,0002.37
2021-11-08 09:13:00,,0828.2,5.00,0.00,28.6,27.7,00.0,37.6,30.3,13.5,0000.0,0007.45,0003.37,0002.41
2021-11-08 09:14:00,,0828.2,4.99,0.00,28.6,27.7,00.0,37.6,30.3,13.5,0000.0,0007.55,0003.35,0002.42
2021-11-08 09:15:00,,0828.2,4.99,0.00,28.6,27.7,00.0,37.6,30.3,13.5,0000.0,0007.46,0003.33,0002.41
2021-11-08 09:16:00,,0828.2,4.99,0.00,28.6,27.7,00.0,37.6,30.3,13.5,0000.0,0007.45,0003.32,0002.42
2021-11-08 09:17:00,,0828.2,5.00,0.00,28.6,27.7,00.0,37.6,30.3,13.5,0000.0,0007.45,0003.35,0002.43
2021-11-08 09:18:00,,0828.3,5.00,0.00,28.6,27.7,00.0,37.6,30.3,13.5,0000.0,0007.47,0003.35,0002.46
2021-11-08 09:19:00,,0828.3,5.01,0.00,28.6,27.7,00.0,37.6,30.3,13.5,0000.0,0007.89,0003.35,0002.46
2021-11-08 09:20:00,,0828.3,5.00,0.00,28.6,27.7,00.0,37.6,30.3,13.5,0000.0,0008.71,0003.34,0002.47
2021-11-08 09:21:00,,0828.3,5.00,0.00,28.6,27.7,00.0,37.6,30.3,13.5,0000.0,0008.72,0003.35,0002.48
2021-11-08 09:22:00,,0828.3,5.00,0.00,28.6,27.7,00.0,37.6,30.3,13.5,0000.0,0008.62,0003.39,0002.50
2021-11-08 09:23:00,,0828.3,5.00,0.00,28.6,27.7,00.0,37.6,30.3,13.5,0000.0,0008.83,0003.46,0002.50
2021-11-08 09:24:00,,0828.3,5.01,0.00,28.6,27.6,00.0,37.6,30.3,13.6,0000.0,0008.93,0003.48,0002.50
2021-11-08 09:25:00,,0828.3,5.00,0.00,28.6,27.6,00.0,37.6,30.3,13.5,0000.0,0008.67,0003.48,0002.49
2021-11-08 09:26:00,,0828.3,5.00,0.00,28.6,27.6,00.0,37.6,30.3,13.5,0000.0,0008.72,0003.46,0002.50
2021-11-08 09:27:00,,0828.3,4.99,0.00,28.6,27.6,00.0,37.6,30.3,13.5,0000.0,0009.06,0003.44,0002.49
2021-11-08 09:28:00,,0828.3,5.01,0.00,28.6,27.6,00.0,37.6,30.2,13.6,0000.0,0009.09,0003.40,0002.47
2021-11-08 09:29:00,,0828.3,4.99,0.00,28.5,27.6,00.0,37.6,30.2,13.5,0000.0,0009.04,0003.39,0002.46
2021-11-08 09:30:00,,0828.3,5.00,0.00,28.5,27.6,00.0,37.6,30.2,13.5,0000.0,0008.60,0003.42,0002.44
2021-11-08 09:31:00,,0828.3,5.00,0.00,28.5,27.6,00.0,37.6,30.2,13.6,0000.0,0008.10,0003.40,0002.42
2021-11-08 09:32:00,,0828.4,5.00,0.00,28.5,27.6,00.0,37.6,30.2,13.6,0000.0,0008.11,0003.38,0002.41
2021-11-08 09:33:00,,0828.4,5.01,0.00,28.5,27.6,00.0,37.6,30.2,13.6,0000.0,0007.92,0003.33,0002.39
2021-11-08 09:34:00,,0828.4,5.01,0.00,28.5,27.6,00.0,37.6,30.2,13.6,0000.0,0007.83,0003.29,0002.36
2021-11-08 09:35:00,,0828.4,5.00,0.00,28.5,27.6,00.0,37.6,30.2,13.6,0000.0,0008.28,0003.31,0002.35
2021-11-08 09:36:00,,0828.4,5.00,0.00,28.5,27.6,00.0,37.6,30.2,13.6,0000.0,0008.31,0003.30,0002.33
2021-11-08 09:37:00,,0828.4,5.00,0.00,28.5,27.6,00.0,37.6,30.2,13.6,0000.0,0008.69,0003.29,0002.31
2021-11-08 09:38:00,,0828.5,5.00,0.00,28.5,27.6,00.0,37.6,30.2,13.6,0000.0,0008.62,0003.30,0002.31
2021-11-08 09:39:00,,0828.5,5.00,0.00,28.5,27.6,00.0,37.5,30.2,13.6,0000.0,0009.18,0003.32,0002.31
2021-11-08 09:40:00,,0828.5,4.99,0.00,28.5,27.5,00.0,37.5,30.2,13.6,0000.0,0009.32,0003.32,0002.30
2021-11-08 09:41:00,,0828.5,4.99,0.00,28.5,27.5,00.0,37.5,30.2,13.6,0000.0,0009.36,0003.30,0002.29
2021-11-08 09:42:00,,0828.6,5.00,0.00,28.5,27.5,00.0,37.5,30.2,13.6,0000.0,0009.11,0003.30,0002.28
2021-11-08 09:43:00,,0828.8,5.00,0.00,28.5,27.5,00.0,37.5,30.2,13.6,0000.0,0009.43,0003.33,0002.28
2021-11-08 09:44:00,,0828.7,5.01,0.00,28.5,27.5,00.0,37.5,30.2,13.6,0000.0,0009.55,0003.35,0002.26
2021-11-08 09:45:00,,0829.0,5.00,0.00,28.5,27.5,00.0,37.5,30.2,13.6,0000.0,0009.55,0003.33,0002.25
2021-11-08 09:46:00,,0829.0,5.00,0.00,28.5,27.5,00.0,37.5,30.2,13.6,0000.0,0009.32,0003.28,0002.23
2021-11-08 09:47:00,,0829.1,5.00,0.00,28.5,27.5,00.0,37.5,30.2,13.6,0000.0,0009.84,0003.27,0002.22
2021-11-08 09:48:00,,0828.9,5.00,0.00,28.5,27.5,00.0,37.5,30.2,13.7,0000.0,0010.38,0003.29,0002.21
2021-11-08 09:49:00,,0828.7,5.00,0.00,28.5,27.5,00.0,37.5,30.2,13.7,0000.0,0010.63,0003.32,0002.19
2021-11-08 09:50:00,,0828.8,4.98,0.00,28.5,27.5,00.0,37.5,30.2,13.7,0000.0,0010.67,0003.30,0002.16
2021-11-08 09:51:00,,0829.0,5.00,0.00,28.5,27.5,00.0,37.5,30.2,13.7,0000.0,0010.88,0003.29,0002.13
2021-11-08 09:52:00,,0829.0,5.00,0.00,28.4,27.5,00.0,37.5,30.2,13.7,0000.0,0010.82,0003.28,0002.13
2021-11-08 09:53:00,,0829.0,5.00,0.00,28.4,27.5,00.0,37.5,30.2,13.7,0000.0,0011.11,0003.30,0002.13
2021-11-08 09:54:00,,0828.9,5.00,0.00,28.5,27.5,00.0,37.5,30.2,13.7,0000.0,0011.33,0003.27,0002.12
2021-11-08 09:55:00,,0829.0,5.02,0.00,28.5,27.5,00.0,37.5,30.2,13.7,0000.0,0011.29,0003.26,0002.12
2021-11-08 09:56:00,,0828.9,5.00,0.00,28.4,27.5,00.0,37.5,30.2,13.7,0000.0,0011.35,0003.27,0002.11
2021-11-08 09:57:00,,0828.9,5.00,0.00,28.4,27.5,00.0,37.5,30.2,13.8,0000.0,0011.68,0003.30,0002.11
2021-11-08 09:58:00,,0828.9,5.00,0.00,28.4,27.5,00.0,37.5,30.2,13.9,0000.0,0011.50,0003.33,0002.10
2021-11-08 09:59:00,,0828.9,5.01,0.00,28.4,27.5,00.0,37.5,30.2,13.9,0000.0,0010.98,0003.31,0002.10
